Weather History for Scilly, United Kingdom

Change the Weather History Date:

Monday, January 28, 2013

  Actual Average Record
Temperature  
Mean Temperature 50 °F -  
Max Temperature 53 °F 47 °F 53 °F (2002)
Min Temperature 46 °F 45 °F 35 °F (2011)
Degree Days  
Heating Degree Days 16    
Moisture  
Dew Point 48 °F    
Average Humidity 88    
Maximum Humidity 96    
Minimum Humidity 66    
Precipitation  
Precipitation 0.04 in - - ()
Sea Level Pressure  
Sea Level Pressure 29.67 in    
Wind  
Wind Speed 27 mph ()    
Max Wind Speed 45 mph    
Max Gust Speed 60 mph    
Visibility 5.1 miles    
Events Rain    
Averages and records for this station are not official NWS values.
T = Trace of Precipitation, MM = Missing Value Source: Averaged Metar Reports

Daily Weather History Graph

Daily Weather History Graph

Search for Another Location

Airport:

Trip Planner

Search our weather history database for the weather conditions in past years. The results will help you decide how hot, cold, wet, or windy it might be!

Date:

Astronomy

Jan. 28, 2013 Rise Set
Actual Time 8:03 AM GMT 5:13 PM GMT
Civil Twilight 7:28 AM GMT 5:48 PM GMT
Nautical Twilight 6:49 AM GMT 6:27 PM GMT
Astronomical Twilight 6:11 AM GMT 7:05 PM GMT
Moon 7:09 PM GMT (1/28) 8:09 AM GMT (1/28)
Length of Visible Light 10h 19m
Length of Day
9h 09m
Full, 98% of the Moon is Illuminated
Jan 28
Full
Feb 3
Last Quarter
Feb 10
New
Feb 17
First Quarter
Feb 25
Full

Hourly Weather History & Observations

Time (GMT) Temp. Dew Point Humidity Pressure Visibility Wind Dir Wind Speed Gust Speed Precip Events Conditions
2:50 AM 46 °F 40 °F 73% 29.82 in 11 mi WSW 18.4 mph - -   Scattered Clouds
5:50 AM 48 °F 40 °F 66% 29.81 in 11 mi SW 21.9 mph - -   Scattered Clouds
8:50 AM 49 °F 45 °F 79% 29.75 in 9 mi SSW 27.6 mph - - Rain Rain
8:50 AM 50.0 °F 44.6 °F 82% 29.74 in 6.2 mi SSW 26.5 mph - N/A Rain Light Rain
9:20 AM 50.0 °F 44.6 °F 82% 29.74 in 6.2 mi SSW 29.9 mph 42.6 mph N/A   Partly Cloudy
9:50 AM 50.0 °F 44.6 °F 82% 29.74 in 6.2 mi SSW 29.9 mph 41.4 mph N/A   Scattered Clouds
10:20 AM 51.8 °F 46.4 °F 82% 29.71 in 6.2 mi SSW 32.2 mph 43.7 mph N/A   Mostly Cloudy
10:50 AM 50.0 °F 46.4 °F 87% 29.71 in 6.2 mi SSW 35.7 mph 47.2 mph N/A   Mostly Cloudy
11:20 AM 51.8 °F 46.4 °F 82% 29.68 in 6.2 mi SSW 35.7 mph 51.8 mph N/A   Mostly Cloudy
11:50 AM 50 °F 48 °F 89% 29.67 in 4 mi SSW 35.7 mph - - Rain Light Rain Showers
11:50 AM 50.0 °F 48.2 °F 94% 29.71 in 4.3 mi SSW 35.7 mph 48.3 mph N/A Rain Rain
12:20 PM 50.0 °F 48.2 °F 94% 29.65 in 2.2 mi SW 36.8 mph 48.3 mph N/A Rain Rain
1:50 PM 51.8 °F 50.0 °F 94% 29.59 in 3.7 mi West 43.7 mph 57.5 mph N/A   Mostly Cloudy
2:20 PM 51.8 °F 50.0 °F 94% 29.59 in 3.7 mi SW 44.9 mph 59.8 mph N/A   Mostly Cloudy
2:50 PM 52 °F 50 °F 89% 29.60 in 4 mi SW 43.7 mph - -   Light Haze
2:50 PM 51.8 °F 50.0 °F 94% 29.59 in 2.8 mi SW 42.6 mph 58.7 mph N/A Rain Rain
3:20 PM 51.8 °F 50.0 °F 94% 29.56 in 2.5 mi SW 42.6 mph 54.1 mph N/A Rain Rain
3:50 PM 51.8 °F 50.0 °F 94% 29.59 in 2.5 mi SW 41.4 mph 52.9 mph N/A Rain Rain
4:20 PM 53.6 °F 51.8 °F 94% 29.59 in 3.1 mi WSW 40.3 mph 52.9 mph N/A Rain Rain
5:50 PM 52 °F 51 °F 95% 29.63 in 4 mi WSW 34.5 mph - -   Mist
8:50 PM 53 °F 51 °F 91% 29.68 in 6 mi WSW 26.5 mph - -   Mist
11:50 PM 52 °F 51 °F 96% 29.68 in 1 mi WSW 18.4 mph - - Rain Light Drizzle